FLOCK 4A-13 (44102 NORAD) Tracking and Keplerian Element Data

This shows tracking and keplerian element data for the satellite.

Feedback or suggestion? Click here.




ElementValue
Catalog44102
NameFLOCK 4A-13
Epoch Orbit435
Epoch Day119.9336051
Epoch Year2019
RAAN180.2728
Inclination97.4605
Eccentricity0.0012246
Argument of Perigee189.7735
Mean Anonmoly170.3264
Mean Motion15.22226176
Decay Rate8.49E-06
L11 44102U 19018AA 19119.93360510 .00000849 00000-0 39962-4 0 9992
L22 44102 97.4605 180.2728 0012246 189.7735 170.3264 15.22226176 4356

Live tracking and technical data element details for FLOCK 4A-13 (NORAD 44102). FLOCK 4A-13 can be tracked NOW for your location showing map with azimuth and elevation plus other details from your city location.

Track the satellite on the map from your city or location and see movement details for azimuth, elevation, latitude, longitude, range, height, and movement on the map or in text.







IsCatalogInMostPopularTable: catalog: 44102, numindb: 34
Update: records affected: 1



GetName: 44102 FLOCK 4A-13

Hit Count: updated at: Fri, 19 Jul 2019 22:56:50 GMT